TimeEDT,TemperatureF,Dew PointF,Humidity,Sea Level PressureIn,VisibilityMPH,Wind Direction,Wind SpeedMPH,Gust SpeedMPH,PrecipitationIn,Events,Conditions,WindDirDegrees,DateUTC
12:15 AM,71.6,69.8,94,30.07,9.0,Calm,Calm,-,N/A,,Clear,0,2013-08-29 04:15:00
12:35 AM,71.6,69.8,94,30.07,8.0,Calm,Calm,-,N/A,,Clear,0,2013-08-29 04:35:00
12:55 AM,69.8,69.8,100,30.07,8.0,Calm,Calm,-,N/A,,Clear,0,2013-08-29 04:55:00
1:35 AM,71.6,69.8,94,30.07,9.0,Calm,Calm,-,N/A,,Clear,0,2013-08-29 05:35:00
1:55 AM,69.8,69.8,100,30.06,8.0,Calm,Calm,-,N/A,,Clear,0,2013-08-29 05:55:00
2:15 AM,68.0,66.2,94,30.06,6.0,Calm,Calm,-,N/A,,Clear,0,2013-08-29 06:15:00
2:35 AM,69.8,68.0,94,30.06,5.0,Calm,Calm,-,N/A,,Clear,0,2013-08-29 06:35:00
2:55 AM,69.8,68.0,94,30.05,6.0,Calm,Calm,-,N/A,,Clear,0,2013-08-29 06:55:00
3:15 AM,69.8,68.0,94,30.05,6.0,Calm,Calm,-,N/A,,Clear,0,2013-08-29 07:15:00
3:35 AM,66.2,66.2,100,30.05,1.8,Calm,Calm,-,N/A,,Clear,0,2013-08-29 07:35:00
3:55 AM,66.2,66.2,100,30.05,2.0,Calm,Calm,-,N/A,,Scattered Clouds,0,2013-08-29 07:55:00
4:15 AM,66.2,64.4,94,30.05,1.5,Calm,Calm,-,N/A,,Mostly Cloudy,0,2013-08-29 08:15:00
4:35 AM,66.2,66.2,100,30.05,1.8,Calm,Calm,-,N/A,,Mostly Cloudy,0,2013-08-29 08:35:00
4:55 AM,66.2,64.4,94,30.05,0.5,Calm,Calm,-,N/A,,Overcast,0,2013-08-29 08:55:00
5:15 AM,66.2,64.4,94,30.05,0.2,Calm,Calm,-,N/A,,Overcast,0,2013-08-29 09:15:00
5:35 AM,66.2,64.4,94,30.06,4.0,Calm,Calm,-,N/A,,Partly Cloudy,0,2013-08-29 09:35:00
5:55 AM,66.2,66.2,100,30.06,4.0,Calm,Calm,-,N/A,,Clear,0,2013-08-29 09:55:00
6:15 AM,66.2,66.2,100,30.06,5.0,Calm,Calm,-,N/A,,Clear,0,2013-08-29 10:15:00
6:35 AM,64.4,64.4,100,30.06,8.0,Calm,Calm,-,N/A,,Clear,0,2013-08-29 10:35:00
6:55 AM,64.4,64.4,100,30.07,5.0,Calm,Calm,-,N/A,,Clear,0,2013-08-29 10:55:00
7:15 AM,66.2,64.4,94,30.08,4.0,Calm,Calm,-,N/A,,Partly Cloudy,0,2013-08-29 11:15:00
7:35 AM,66.2,64.4,94,30.08,6.0,Calm,Calm,-,N/A,,Partly Cloudy,0,2013-08-29 11:35:00
7:55 AM,66.2,64.4,94,30.09,5.0,Calm,Calm,-,N/A,,Clear,0,2013-08-29 11:55:00
8:15 AM,68.0,66.2,94,30.09,7.0,Calm,Calm,-,N/A,,Clear,0,2013-08-29 12:15:00
8:35 AM,69.8,68.0,94,30.09,4.0,Calm,Calm,-,N/A,,Mostly Cloudy,0,2013-08-29 12:35:00
8:55 AM,71.6,69.8,94,30.09,5.0,Calm,Calm,-,N/A,,Mostly Cloudy,0,2013-08-29 12:55:00
9:15 AM,73.4,69.8,88,30.09,7.0,Calm,Calm,-,N/A,,Scattered Clouds,0,2013-08-29 13:15:00
9:35 AM,75.2,71.6,89,30.09,10.0,Calm,Calm,-,N/A,,Mostly Cloudy,0,2013-08-29 13:35:00
9:55 AM,78.8,71.6,78,30.09,10.0,Calm,Calm,-,N/A,,Mostly Cloudy,0,2013-08-29 13:55:00
10:15 AM,78.8,71.6,78,30.09,10.0,Calm,Calm,-,N/A,,Scattered Clouds,0,2013-08-29 14:15:00
10:35 AM,80.6,71.6,74,30.09,10.0,Variable,3.5,-,N/A,,Clear,0,2013-08-29 14:35:00
10:55 AM,80.6,71.6,74,30.08,10.0,NNW,6.9,-,N/A,,Clear,330,2013-08-29 14:55:00
11:15 AM,82.4,71.6,70,30.08,10.0,NW,6.9,-,N/A,,Clear,310,2013-08-29 15:15:00
11:35 AM,84.2,69.8,62,30.08,10.0,NW,9.2,-,N/A,,Clear,310,2013-08-29 15:35:00
11:55 AM,84.2,71.6,66,30.08,10.0,NNW,8.1,-,N/A,,Clear,340,2013-08-29 15:55:00
12:15 PM,84.2,69.8,62,30.08,10.0,NW,6.9,-,N/A,,Clear,310,2013-08-29 16:15:00
12:35 PM,86.0,69.8,58,30.08,10.0,WNW,8.1,-,N/A,,Clear,290,2013-08-29 16:35:00
12:55 PM,87.8,71.6,58,30.07,10.0,WNW,6.9,-,N/A,,Clear,300,2013-08-29 16:55:00
1:15 PM,87.8,69.8,55,30.07,10.0,Variable,6.9,-,N/A,,Clear,0,2013-08-29 17:15:00
1:35 PM,87.8,69.8,55,30.06,10.0,Variable,5.8,-,N/A,,Clear,0,2013-08-29 17:35:00
1:55 PM,87.8,71.6,58,30.06,10.0,WSW,4.6,-,N/A,,Clear,250,2013-08-29 17:55:00
2:15 PM,89.6,71.6,55,30.05,10.0,West,8.1,-,N/A,,Partly Cloudy,260,2013-08-29 18:15:00
2:35 PM,89.6,71.6,55,30.04,10.0,WNW,8.1,-,N/A,,Clear,300,2013-08-29 18:35:00
2:55 PM,89.6,71.6,55,30.04,10.0,West,9.2,-,N/A,,Clear,260,2013-08-29 18:55:00
3:15 PM,89.6,71.6,55,30.03,10.0,Variable,6.9,-,N/A,,Partly Cloudy,0,2013-08-29 19:15:00
3:35 PM,89.6,71.6,55,30.02,10.0,WNW,6.9,-,N/A,,Scattered Clouds,300,2013-08-29 19:35:00
3:55 PM,89.6,71.6,55,30.02,10.0,Variable,5.8,-,N/A,,Partly Cloudy,0,2013-08-29 19:55:00
4:15 PM,89.6,71.6,55,30.01,10.0,West,8.1,-,N/A,,Partly Cloudy,270,2013-08-29 20:15:00
4:35 PM,87.8,71.6,58,30.02,10.0,West,5.8,-,N/A,,Scattered Clouds,270,2013-08-29 20:35:00
4:55 PM,87.8,71.6,58,30.01,10.0,WNW,4.6,-,N/A,,Partly Cloudy,290,2013-08-29 20:55:00
5:15 PM,87.8,71.6,58,30.01,10.0,WNW,5.8,-,N/A,,Partly Cloudy,290,2013-08-29 21:15:00
5:35 PM,89.6,71.6,55,30.01,10.0,West,3.5,-,N/A,,Clear,280,2013-08-29 21:35:00
5:55 PM,89.6,71.6,55,30.00,10.0,WNW,5.8,-,N/A,,Clear,300,2013-08-29 21:55:00
6:15 PM,87.8,71.6,58,30.00,10.0,WNW,3.5,-,N/A,,Clear,290,2013-08-29 22:15:00
6:35 PM,87.8,71.6,58,29.99,10.0,West,3.5,-,N/A,,Clear,280,2013-08-29 22:35:00
6:55 PM,87.8,71.6,58,30.00,10.0,West,5.8,-,N/A,,Clear,270,2013-08-29 22:55:00
7:15 PM,87.8,73.4,62,30.01,10.0,West,3.5,-,N/A,,Clear,270,2013-08-29 23:15:00
7:35 PM,86.0,73.4,66,30.00,10.0,West,4.6,-,N/A,,Partly Cloudy,260,2013-08-29 23:35:00
7:55 PM,84.2,73.4,70,30.00,10.0,West,4.6,-,N/A,,Clear,260,2013-08-29 23:55:00
8:15 PM,82.4,73.4,74,30.00,10.0,West,3.5,-,N/A,,Clear,270,2013-08-30 00:15:00
8:35 PM,82.4,73.4,74,30.01,10.0,Calm,Calm,-,N/A,,Clear,0,2013-08-30 00:35:00
8:55 PM,80.6,73.4,79,30.01,10.0,Calm,Calm,-,N/A,,Clear,0,2013-08-30 00:55:00
9:15 PM,77.0,73.4,89,30.01,10.0,Calm,Calm,-,N/A,,Partly Cloudy,0,2013-08-30 01:15:00
9:35 PM,78.8,73.4,83,30.02,10.0,Calm,Calm,-,N/A,,Mostly Cloudy,0,2013-08-30 01:35:00
9:55 PM,78.8,73.4,83,30.02,10.0,Calm,Calm,-,N/A,,Mostly Cloudy,0,2013-08-30 01:55:00
10:15 PM,77.0,73.4,89,30.02,10.0,Calm,Calm,-,N/A,,Scattered Clouds,0,2013-08-30 02:15:00
10:35 PM,75.2,73.4,94,30.02,10.0,Calm,Calm,-,N/A,,Clear,0,2013-08-30 02:35:00
10:55 PM,75.2,73.4,94,30.02,10.0,Calm,Calm,-,N/A,,Clear,0,2013-08-30 02:55:00
11:15 PM,75.2,73.4,94,30.01,10.0,Calm,Calm,-,N/A,,Clear,0,2013-08-30 03:15:00
11:35 PM,73.4,73.4,100,30.01,10.0,Calm,Calm,-,N/A,,Partly Cloudy,0,2013-08-30 03:35:00
11:55 PM,75.2,73.4,94,30.02,10.0,Calm,Calm,-,N/A,,Mostly Cloudy,0,2013-08-30 03:55:00